Regional Weather Roundup
Issued by NWS Grand Forks, ND

Home | Current Version | Previous Version | Graphics & Text | Print | Product List | Glossary On
Versions: 1 2 3 4 5 6 7 8 9 10 11 12 13 14 15 16 17 18 19 20 21 22 23 24 25 26 27 28 29 30 31 32 33 34 35 36 37 38 39 40 41 42 43 44 45 46 47 48 49 50
000
ASUS43 KFGF 280410
RWRFGF
PRAIRIE TO PINES  WEATHER ROUNDUP
NATIONAL WEATHER SERVICE EASTERN NORTH DAKOTA/GRAND FORKS ND
1000 PM CST SAT DEC 27 2014

 **SATELLITE DATA USED TO AUGMENT SKY COVER AT AUTOMATED STATIONS**
 *****  WEATHER ACROSS EASTERN NORTH DAKOTA  *****

CITY           SKY/WX    TMP DP  RH WIND       PRES   REMARKS
GRAND FORKS    FLURRIES  12   7  80 N13       30.09R WCI  -3
GRAND FRKS AFB FLURRIES  10  10 100 N14       30.09R WCI  -5
GRAND FRKS NWS   N/A     12 N/A N/A N14         N/A  WCI  -3
DEVILS LAKE    CLOUDY    12   7  79 NE6       30.04R WCI   3
FARGO          CLOUDY    24  19  81 SW7       30.04R WCI  16
WAHPETON ARPT  CLOUDY    23  19  86 W5        30.05S WCI  17
$$

 ***** WEATHER ACROSS CENTRAL AND WESTERN NORTH DAKOTA  *****

CITY           SKY/WX    TMP DP  RH WIND       PRES   REMARKS
BISMARCK       CLOUDY    14  11  87 CALM      30.04S
MINOT          CLOUDY    13   7  77 N10       30.05R WCI   0
JAMESTOWN      CLOUDY    21  16  81 NW14      30.02R WCI   8
MINOT AFB      MIX PCPN  10  10 100 N7        30.06R WCI   0
GARRISON         N/A     18  14  84 N3        30.02R
WILLISTON      CLOUDY    19  15  84 NE7       30.01S WCI  10
DICKINSON      CLOUDY    23  16  74 W6        29.95S WCI  16
HETTINGER      MOCLDY    18  14  84 NW7       29.99F WCI   9
$$

 *****  OTHER AIRPORT OBSERVATIONS IN OUR AREA  *****

CITY           SKY/WX    TMP DP  RH WIND       PRES   REMARKS
WALHALLA         N/A      1   0  92 N10       30.15R WCI -14
GRAFTON AIRPOR NOT AVBL
VALLEY CITY AR CLOUDY    23  23 100 NW10      30.02R WCI  12
CANDO          CLOUDY     9   5  85 NE9       30.06R WCI  -5
CAVALIER APRT  FAIR       3   0  85 N9        30.13R WCI -11
GWINNER        CLEAR     19  19 100 SW9       30.04S WCI   9
SHEYENNE NWR     N/A     20  16  85 SW6       29.95S WCI  12
ROLLA          CLOUDY     0  -2  92 N8        30.06R WCI -15
 ***** THE ABOVE OBSERVATIONS ARE NON NWS ARE NOT QUALITY
       CONTROLLED AND MAY MIS-REPORT RAIN FOR SNOW...
$$

  *****  WEATHER ACROSS NORTHERN MINNESOTA  *****

CITY           SKY/WX    TMP DP  RH WIND       PRES   REMARKS
FLAG ISLAND    CLEAR      0  -4  85 NW15      30.05R WCI -20
WARROAD        CLOUDY     7   0  72 NW10      30.07R WCI  -8
ROSEAU         CLOUDY     9   3  78 N10       30.07R WCI  -6
HALLOCK        CLOUDY     7   1  78 N14       30.11R WCI -10
THF RVR FALLS  CLOUDY    14  10  85 N9        30.04S WCI   2
BAUDETTE       FLURRIES   8   3  80 NW15      30.03R WCI  -9
WASKISH        CLOUDY    14  10  85 W6        30.01S WCI   5
CROOKSTON      LGT SNOW  18  16  93 N7        30.07R WCI   8
STEPHEN NDAWN    N/A      9   5  85 N12         N/A  WCI  -6
GREENBUSH NDAW   N/A      9   3  78 N13         N/A  WCI  -7
$$
  *****  WEATHER ACROSS CENTRAL AND WEST MINNESOTA  *****

CITY           SKY/WX    TMP DP  RH WIND       PRES   REMARKS
FOSSTON        LGT SNOW  16  12  86 N7        30.02S WCI   6
BEMIDJI        FLURRIES  17  14  90 NW7       30.00R WCI   7
PARK RAPIDS    CLOUDY    17  14  88 SW3       29.99S
ELBOW LAKE     CLOUDY    20  17  88 SW6       30.04S WCI  12
WADENA         CLOUDY    19  18  93 SW7       30.01S WCI  10
DETROIT LAKES  CLOUDY    21  19  93 W5        30.01R WCI  15
MOORHEAD       CLOUDY    23  21  93 SW5       30.05R WCI  17
FERGUS FALLS   MOCLDY    19  16  86 SW5       30.07S WCI  13
MORRIS MN      CLOUDY    19  16  86 SW7       30.04F WCI  10
STAPLES        CLOUDY    19  18  93 SW5       30.02S WCI  13
$$
  *****  WEATHER ELSEWHERE ACROSS MINNESOTA  *****

CITY           SKY/WX    TMP DP  RH WIND       PRES   REMARKS
DULUTH         PTCLDY    16   5  62 W6        29.97S WCI   7
INTRNTL FALLS  LGT SNOW  13   8  81 W9        29.98R WCI   1
ELY            CLOUDY    14   7  73 W8        29.95S WCI   3
CLOQUET        CLEAR     18  10  73 W7        29.99R WCI   8
WHEATON        CLOUDY    19  16  86 SW8       30.07S WCI   9
BRAINERD       CLOUDY    20  15  81 SW6       30.03S WCI  12
HIBBING        LGT SNOW  18  10  71 W5        29.98R WCI  11
ALEXANDRIA     CLOUDY    20  15  81 SW8       30.03F WCI  10
SAINT CLOUD    CLOUDY    18  10  71 SW5       30.08R WCI  11
MINNEAPOLIS    PTCLDY    12   6  77 SW6       30.12S WCI   3
$$

  *****  WEATHER ACROSS SOUTH DAKOTA  *****

CITY           SKY/WX    TMP DP  RH WIND       PRES   REMARKS
SIOUX FALLS    PTCLDY    10   8  92 S6        30.12F WCI   0
BROOKINGS      NOT AVBL
WATERTOWN      PTCLDY     6   4  91 S8        30.05S WCI  -7
HURON          CLEAR     13   9  84 S7        30.08F WCI   3
SISSETON         N/A     22  17  81 W15       30.03F WCI   9
ABERDEEN       PTCLDY    18  14  84 S8        30.06R WCI   8
MITCHELL       PTCLDY    12   9  87 SW6       30.11F WCI   3
PIERRE         CLEAR     16  11  80 SW10      30.06S WCI   4
MOBRIDGE       CLOUDY    17  13  84 CALM      30.02R
RAPID CITY     CLEAR     11   6  81 W5        30.02F WCI   3
$$

  *****  SOME WEATHER IN NEARBY STATES *****

CITY           SKY/WX    TMP DP  RH WIND       PRES   REMARKS
GLASGOW MT     CLOUDY    25  18  74 W5        29.93S WCI  19
GREAT FALLS MT CLOUDY    29  20  69 S12       29.83F WCI  19
CHEYENNE WY    MOCLDY    17   0  47 W16       30.00F WCI   2
SCOTTSBLUFF NE PTCLDY     5   2  87 N6        30.09S WCI  -6
OMAHA NE       CLEAR     18  15  88 SE6       30.25S WCI  10
DES MOINES IA  CLEAR     21  16  81 W3        30.23S
DAVENPORT IA   PTCLDY    25  19  78 W12       30.20R WCI  14
CHICAGO IL     CLOUDY    32  25  75 NW16      30.11R WCI  21
EAU CLAIRE WI  CLEAR     13   7  77 SW10      30.09S WCI   0
LA CROSSE WI   CLEAR     18  11  74 SW6       30.17R WCI  10
$$

  *****  SOME NATIONAL WEATHER *****

CITY           SKY/WX    TMP DP  RH WIND       PRES   REMARKS
LA GUARDIA NY  MOCLDY    49  35  58 SW7       30.11F
RALEIGH NC     MOCLDY    51  38  60 S5        30.20F
ATLANTA GA     LGT RAIN  54  51  90 S5        30.20F
NEW ORLEANS LA MOCLDY    69  67  93 SW6       30.09S FOG
OKLAHOMA CITY  CLEAR     28  18  66 NW5       30.30S WCI  23
ALBUQUERQUE NM CLEAR     27   7  42 N13       30.28R WCI  16
SALT LAKE CITY CLOUDY    25  15  66 SE8       30.28F WCI  16
LOS ANGELES CA PTCLDY    55  34  45 NW6       30.33R
BOISE ID       LGT SNOW  29  27  92 SE8       30.18F VSB 1   WCI  21
SEATTLE WA     MOCLDY    45  39  79 SW16      30.05S
$$

*** WEATHER ACROSS MANITOBA...SASKATCHEWAN AND ONTARIO ***
                ***ONTARIO***

CITY           SKY/WX    TMP DP  RH WIND       PRES   REMARKS
GERALDTON      FLURRIES  14  10  85 W8        29.83S WCI   3
THUNDER BAY    NOT AVBL
SIOUX LOOKOUT  NOT AVBL
TORONTO        NOT AVBL
BIG TROUT LK   FLURRIES  -9 -13  84 NW8       29.90S WCI -26
PICKLE LAKE    NOT AVBL
DRYDEN         FLURRIES   5   1  85 W10G17    29.94R WCI -10
KENORA         FLURRIES   0  -6  78 NW12      30.00R WCI -18
$$
                *** MANITOBA***

CITY           SKY/WX    TMP DP  RH WIND       PRES   REMARKS
BRANDON        CLOUDY    -4  -8  84 NE6       30.13R WCI -16
DAUPHIN        CLEAR    -13 -17  84 SW5       30.19R WCI -25
ISLAND LAKE    PTCLDY   -24 -29  76 W8        30.05R WCI -43
PILOT MOUND      N/A      0  -2  92 NE7         N/A  WCI -13
THE PAS        CLEAR    -18 -24  76 NW13      30.19S WCI -41
THOMPSON       FLURRIES -18 -24  76 NW7       30.10R WCI -35
WINNIPEG       CLEAR     -8 -15  71 NW13      30.16R WCI -28
GILLAM         LGT SNOW -13 -18  77 NW12      30.03R DRFTSNOWWCI -33
$$
                ***SASKATCHEWAN***

CITY           SKY/WX    TMP DP  RH WIND       PRES   REMARKS
ESTEVAN        LGT SNOW  10   7  85 NE7       30.05R WCI   0
KINDERSLEY     CRYSTALS   9   5  85 E16       29.97R WCI  -9
LLOYDMINSTER   FLURRIES   3   0  85 E13       30.05R WCI -14
PRINCE ALBERT  CLEAR    -24 -29  76 W2        30.20R FOG
REGINA         MOCLDY     5  -4  66 E7        30.07R WCI  -7
YORKTON        CLEAR    -18 -24  76 NW5       30.13R WCI -31
N. BATTLEFORD  CLOUDY    -4  -9  77 E14       30.14R WCI -24
LA RONGE       NOT AVBL
SASKATOON      PTCLDY   -17 -20  83 NE7       30.16R WCI -33
SWIFT CURRENT  CLOUDY    16  14  93 SE8       29.93R FOG     WCI   5
$$
NOTE: THESE ARE AUTOMATED STATIONS WITH LIMITED QUALITY CONTROL
      "FAIR" INDICATES FEW OR NO CLOUDS BELOW 12,000 FEET WITH NO
      SIGNIFICANT WEATHER AND/OR OBSTRUCTIONS TO VISIBILITY.
      SKY/WX - SKY CONDITION AND SIGNIFICANT WEATHER.
      TMP - AIR TEMPERATURE.    DP   - DEWPOINT TEMPERATURE.
      RH  - RELATIVE HUMIDITY.  PRES - PRESSURE.
      HX  - HEAT INDEX.         WCI  - WIND CHILL INDEX.
$


USA.gov is the U.S. government's official web portal to all federal, state and local government web resources and services.